This is the latest recevied weather packets stored in our database for station/object KY4JDC. If no packets are shown the sender has not sent any weather packets the latest 10 day(s).
| Time | Temp. | Humidity | Pressure | Rain* | Wind** | Luminosity | Snow |
|---|---|---|---|---|---|---|---|
| 1787454414 | 22.78° C | 81% | 1018.5 hPa | 0 mm | - | 0 W/m² | - |
| 1787454114 | 22.78° C | 80% | 1018.4 hPa | 0 mm | - | 0 W/m² | - |
| 1787453815 | 23.33° C | 80% | 1018.3 hPa | 0 mm | - | 0 W/m² | - |
| 1787453511 | 23.33° C | 78% | 1018.5 hPa | 0 mm | - | 0 W/m² | - |
| 1787453211 | 23.89° C | 77% | 1018.3 hPa | 0 mm | - | 0 W/m² | - |
| 1787452906 | 23.89° C | 75% | 1018.4 hPa | 0 mm | - | 0 W/m² | - |
| 1787452604 | 23.89° C | 75% | 1018.1 hPa | 0 mm | - | 0 W/m² | - |
| 1787452300 | 23.33° C | 76% | 1018.2 hPa | 0 mm | - | 0 W/m² | - |
| 1787451995 | 23.33° C | 77% | 1018 hPa | 0 mm | - | 0 W/m² | - |
| 1787451695 | 23.33° C | 77% | 1018.1 hPa | 0 mm | - | 0 W/m² | - |
| 1787451394 | 23.89° C | 77% | 1018 hPa | 0 mm | - | 0 W/m² | - |
| 1787451090 | 23.89° C | 75% | 1017.9 hPa | 0 mm | - | 0 W/m² | - |
| 1787450785 | 23.89° C | 74% | 1018 hPa | 0 mm | - | 0 W/m² | - |
| 1787450481 | 23.89° C | 74% | 1018 hPa | 0 mm | - | 0 W/m² | - |
| 1787450176 | 24.44° C | 74% | 1017.9 hPa | 0 mm | - | 0 W/m² | - |
| 1787449872 | 24.44° C | 73% | 1017.7 hPa | 0 mm | - | 0 W/m² | - |
| 1787449567 | 25° C | 71% | 1017.7 hPa | 0 mm | - | 0 W/m² | - |
| 1787449262 | 25° C | 68% | 1017.4 hPa | 0 mm | - | 0 W/m² | - |
| 1787448957 | 25° C | 68% | 1017.3 hPa | 0 mm | - | 0 W/m² | - |
| 1787448652 | 25° C | 68% | 1017.4 hPa | 0 mm | - | 0 W/m² | - |
| 1787448349 | 25° C | 68% | 1017.4 hPa | 0 mm | - | 0 W/m² | - |
| 1787448044 | 25° C | 68% | 1017.6 hPa | 0 mm | - | 0 W/m² | - |
| 1787447743 | 25° C | 69% | 1017.5 hPa | 0 mm | - | 0 W/m² | - |
| 1787447438 | 25.56° C | 68% | 1017.6 hPa | 0 mm | - | 0 W/m² | - |
| 1787447135 | 25.56° C | 67% | 1017.5 hPa | 0 mm | - | 0 W/m² | - |
* Rain latest hour (hover to see other rain measurements)
** Current wind speed in m/s (hover to see current wind gust speed)